LEGION 1

Last updated on Sun Nov 02 2025 00:02:32 GMT+0000 (Coordinated Universal Time)

1 59625U 24081A 25305.56609880 .00006541 00000+0 33154-3 0 9993 2 59625 97.5253 20.5283 0003284 161.7793 198.3558 15.17298763 83033
UTC large
Height (km)
Speed (km/s)
/
Latitude / Longitude
Inclination (degrees)
Orbital Period (minutes)
Azimuth
Elevation
Range (km)
Doppler Factor

Next 0 passes for location: London (51.5072 / 0.1276)

Sorry there are no passes over London.